This demonstration page uses our WeatherBlox Daily Observations layout. Learn more.

Left ArrowRight Arrow

39.92423, -83.80882

Hourly Observations for March 7, 2018

Temp ( °F °C ) Dew Point ( °F °C ) Humidity (%) Winds ( mph kmh ) Pressure ( in mb ) Visibility ( mi km ) Precip ( " mm )
12:56 am 00:56 Clear 35 1.7 33 0.6 93 93 W 5 7 29.72 1007 10 16 N/A
1:56 am 01:56 Clear 35 1.7 29 -1.7 78 78 W 12 19 29.72 1007 10 16 N/A
2:56 am 02:56 Clear 32 undefined 28 -2.2 85 85 W 8 13 29.72 1007 10 16 N/A
3:56 am 03:56 Clear 31 -0.6 28 -2.2 89 89 W 10 17 29.73 1007 10 16 N/A
4:56 am 04:56 Clear 32 undefined 28 -2.2 85 85 W 15 24 29.75 1008 10 16 N/A
5:56 am 05:56 Clear 32 undefined 27 -2.8 82 82 W 10 17 29.76 1008 10 16 N/A
6:56 am 06:56 Clear 31 -0.6 27 -2.8 85 85 W 14 22 29.79 1009 10 16 N/A
7:56 am 07:56 Sunny 31 -0.6 27 -2.8 85 85 WSW 12 19 29.80 1009 10 16 N/A
8:56 am 08:56 Partly Cloudy with Isolated Snow Showers 31 -0.6 28 -2.2 89 89 WSW 13 20 29.82 1010 8 13 N/A
9:40 am 09:40 Partly Cloudy with Isolated Snow Showers 32 undefined 30 -1 93 93 W 17 28 29.85 1011 2 3 N/A
9:56 am 09:56 Partly Cloudy with Isolated Snow Showers 32 undefined 29 -1.7 88 88 WNW 23 37 29.84 1011 1 2 N/A
10:05 am 10:05 Partly Cloudy with Isolated Snow Showers 32 undefined 28 -2 87 87 W 21 33 29.88 1012 3 5 N/A
10:56 am 10:56 Sunny 32 undefined 27 -2.8 82 82 WNW 17 28 29.87 1012 9 14 N/A
11:56 am 11:56 Sunny 32 undefined 25 -3.9 75 75 WNW 22 35 29.89 1012 10 16 N/A
12:56 pm 12:56 Partly Cloudy with Isolated Snow Showers 32 undefined 26 -3.3 79 79 WNW 17 28 29.91 1013 5 8 N/A
1:56 pm 13:56 Sunny 35 1.7 22 -5.6 59 59 WNW 18 30 29.91 1013 10 16 N/A
2:56 pm 14:56 Sunny 36 2.2 22 -5.6 57 57 WNW 24 39 29.91 1013 10 16 N/A
3:56 pm 15:56 Partly Cloudy with Light Rain 33 0.6 22 -5.6 64 64 WNW 18 30 29.94 1014 10 16 N/A
4:56 pm 16:56 Partly Cloudy with Light Rain 34 1.1 20 -6.7 56 56 WNW 20 31 29.95 1014 10 16 N/A
5:56 pm 17:56 Sunny 33 0.6 20 -6.7 58 58 WNW 16 26 29.96 1015 10 16 N/A
6:56 pm 18:56 Partly Cloudy with Isolated Snow Showers 31 -0.6 24 -4.4 76 76 WNW 15 24 29.99 1016 9 14 N/A
7:56 pm 19:56 Clear 30 -1.1 23 -5 75 75 W 9 15 29.99 1016 10 16 N/A
8:56 pm 20:56 Clear 30 -1.1 23 -5 75 75 W 13 20 30.01 1016 10 16 N/A
9:56 pm 21:56 Clear 29 -1.7 21 -6.1 72 72 W 13 20 30.01 1016 10 16 N/A
10:56 pm 22:56 Clear 27 -2.8 21 -6.1 78 78 W 9 15 30.00 1016 10 16 N/A
11:56 pm 23:56 Clear 27 -2.8 19 -7.2 72 72 W 10 17 30.00 1016 10 16 N/A

Powered by AerisWeather